| time (UTC) | temp C | wind direction | speed KPH | gust KPH | rain 1hr cm | rain 24hr cm | rain mn cm | humidity % | barometer mb |
| 20260506114028 | 8 | 245 | 3.2 | 3.2 | 0.00 | 0.00 | 0.00 | 100 | 1016.9 |
| 20260506113528 | 8 | 245 | 4.8 | 4.8 | 0.00 | 0.00 | 0.00 | 100 | 1016.8 |
| 20260506113129 | 8 | 245 | 4.8 | 4.8 | 0.00 | 0.00 | 0.00 | 100 | 1016.8 |
| 20260506113028 | 8 | 245 | 4.8 | 4.8 | 0.00 | 0.00 | 0.00 | 100 | 1016.8 |
| 20260506112528 | 8 | 245 | 8.0 | 8.0 | 0.00 | 0.00 | 0.00 | 100 | 1016.7 |
| 20260506112028 | 8 | 245 | 8.0 | 11.3 | 0.00 | 0.00 | 0.00 | 100 | 1016.7 |
| 20260506111528 | 8 | 247 | 8.0 | 11.3 | 0.00 | 0.00 | 0.00 | 100 | 1016.8 |
| 20260506111329 | 8 | 242 | 8.0 | 11.3 | 0.00 | 0.00 | 0.00 | 100 | 1016.7 |
| 20260506111028 | 8 | 250 | 9.7 | 11.3 | 0.00 | 0.00 | 0.00 | 100 | 1016.7 |
| 20260506110528 | 8 | 251 | 9.7 | 11.3 | 0.00 | 0.00 | 0.00 | 99 | 1016.7 |
| 20260506110429 | 8 | 251 | 9.7 | 11.3 | 0.00 | 0.00 | 0.00 | 99 | 1016.7 |
| 20260506110028 | 8 | 251 | 9.7 | 11.3 | 0.00 | 0.00 | 0.00 | 99 | 1016.5 |
| 20260506105528 | 8 | 251 | 11.3 | 11.3 | 0.00 | 0.00 | 0.00 | 99 | 1016.5 |
| 20260506105028 | 8 | 260 | 9.7 | 12.9 | 0.00 | 0.00 | 0.00 | 99 | 1016.5 |
| 20260506104629 | 8 | 249 | 9.7 | 11.3 | 0.00 | 0.00 | 0.00 | 99 | 1016.5 |
| 20260506104528 | 8 | 249 | 8.0 | 11.3 | 0.00 | 0.00 | 0.00 | 99 | 1016.4 |
| 20260506104028 | 8 | 249 | 8.0 | 8.0 | 0.00 | 0.00 | 0.00 | 99 | 1016.4 |
| 20260506103729 | 8 | 249 | 8.0 | 11.3 | 0.00 | 0.00 | 0.00 | 99 | 1016.3 |
| 20260506103528 | 8 | 249 | 8.0 | 11.3 | 0.00 | 0.00 | 0.00 | 100 | 1016.3 |
| 20260506103028 | 8 | 249 | 9.7 | 11.3 | 0.00 | 0.00 | 0.00 | 99 | 1016.3 |
| 20260506102829 | 8 | 244 | 8.0 | 11.3 | 0.00 | 0.00 | 0.00 | 99 | 1016.3 |
| 20260506102528 | 8 | 244 | 6.4 | 11.3 | 0.00 | 0.00 | 0.00 | 99 | 1016.2 |
| 20260506102028 | 8 | 235 | 4.8 | 8.0 | 0.00 | 0.00 | 0.00 | 100 | 1016.2 |
| 20260506101930 | 8 | 235 | 4.8 | 6.4 | 0.00 | 0.00 | 0.00 | 100 | 1016.2 |
| 20260506101528 | 8 | 132 | 6.4 | 8.0 | 0.00 | 0.00 | 0.00 | 100 | 1016.2 |
| 20260506101028 | 8 | 119 | 8.0 | 11.3 | 0.00 | 0.00 | 0.00 | 100 | 1016.2 |
| 20260506100528 | 8 | 114 | 11.3 | 12.9 | 0.00 | 0.00 | 0.00 | 100 | 1016.1 |
| 20260506100131 | 8 | 103 | 11.3 | 12.9 | 0.00 | 0.00 | 0.00 | 100 | 1016.1 |
| 20260506100028 | 8 | 106 | 11.3 | 12.9 | 0.00 | 0.00 | 0.00 | 100 | 1016.1 |
| 20260506095528 | 8 | 103 | 9.7 | 14.5 | 0.00 | 0.00 | 0.00 | 100 | 1016.2 |
| 20260506095229 | 8 | 107 | 9.7 | 12.9 | 0.00 | 0.00 | 0.00 | 100 | 1016.2 |
| 20260506095028 | 8 | 106 | 9.7 | 12.9 | 0.00 | 0.00 | 0.00 | 100 | 1016.1 |
| 20260506094528 | 8 | 120 | 9.7 | 12.9 | 0.00 | 0.00 | 0.00 | 100 | 1016.2 |
| 20260506094329 | 8 | 120 | 9.7 | 11.3 | 0.00 | 0.00 | 0.00 | 100 | 1016.2 |
| 20260506094028 | 8 | 120 | 9.7 | 12.9 | 0.00 | 0.00 | 0.00 | 100 | 1016.1 |
| 20260506093528 | 8 | 130 | 11.3 | 12.9 | 0.00 | 0.00 | 0.00 | 100 | 1016.1 |
| 20260506093429 | 8 | 130 | 11.3 | 12.9 | 0.00 | 0.00 | 0.00 | 100 | 1016.1 |
| 20260506093028 | 8 | 136 | 11.3 | 14.5 | 0.00 | 0.00 | 0.00 | 99 | 1016.2 |
| 20260506092528 | 8 | 127 | 11.3 | 12.9 | 0.00 | 0.00 | 0.00 | 99 | 1016.1 |
| 20260506092028 | 8 | 130 | 9.7 | 14.5 | 0.00 | 0.00 | 0.00 | 99 | 1016.1 |
| 20260506091629 | 8 | 121 | 8.0 | 12.9 | 0.00 | 0.00 | 0.00 | 99 | 1016.1 |
| 20260506091528 | 8 | 123 | 8.0 | 12.9 | 0.00 | 0.00 | 0.00 | 99 | 1016.1 |
| 20260506091028 | 8 | 121 | 6.4 | 8.0 | 0.00 | 0.00 | 0.00 | 99 | 1016.2 |
| 20260506090729 | 8 | 120 | 6.4 | 8.0 | 0.00 | 0.00 | 0.00 | 99 | 1016.1 |
| 20260506090528 | 8 | 119 | 6.4 | 8.0 | 0.00 | 0.00 | 0.00 | 98 | 1016.1 |
| 20260506090028 | 8 | 196 | 4.8 | 6.4 | 0.00 | 0.00 | 0.00 | 98 | 1016.1 |
| 20260506085829 | 8 | 196 | 4.8 | 6.4 | 0.00 | 0.00 | 0.00 | 98 | 1016.2 |
| 20260506085528 | 9 | 196 | 3.2 | 6.4 | 0.00 | 0.00 | 0.00 | 98 | 1016.2 |
| 20260506085028 | 9 | 196 | 1.6 | 4.8 | 0.00 | 0.00 | 0.00 | 98 | 1016.2 |
| 20260506084929 | 9 | 196 | 1.6 | 3.2 | 0.00 | 0.00 | 0.00 | 98 | 1016.2 |
| 20260506084528 | 9 | 196 | 1.6 | 3.2 | 0.00 | 0.00 | 0.00 | 98 | 1016.2 |
| 20260506084028 | 9 | 196 | 1.6 | 3.2 | 0.00 | 0.00 | 0.00 | 98 | 1016.3 |
| 20260506083528 | 9 | 196 | 1.6 | 3.2 | 0.00 | 0.00 | 0.00 | 98 | 1016.3 |
| 20260506083129 | 9 | 196 | 3.2 | 3.2 | 0.00 | 0.00 | 0.00 | 98 | 1016.2 |
| 20260506083028 | 9 | 196 | 3.2 | 3.2 | 0.00 | 0.00 | 0.00 | 98 | 1016.2 |
| 20260506082528 | 9 | 196 | 1.6 | 4.8 | 0.00 | 0.00 | 0.00 | 98 | 1016.2 |
| 20260506082230 | 9 | 196 | 1.6 | 3.2 | 0.00 | 0.00 | 0.00 | 98 | 1016.2 |
| 20260506082028 | 9 | 196 | 1.6 | 3.2 | 0.00 | 0.00 | 0.00 | 98 | 1016.1 |
| 20260506081528 | 9 | 196 | 3.2 | 3.2 | 0.00 | 0.00 | 0.00 | 98 | 1016.2 |
| 20260506081329 | 9 | 196 | 3.2 | 3.2 | 0.00 | 0.00 | 0.00 | 98 | 1016.2 |
| 20260506081028 | 9 | 196 | 4.8 | 4.8 | 0.00 | 0.00 | 0.00 | 98 | 1016.2 |
| 20260506080528 | 8 | 196 | 4.8 | 4.8 | 0.00 | 0.00 | 0.00 | 98 | 1016.2 |
| 20260506080429 | 9 | 196 | 4.8 | 6.4 | 0.00 | 0.00 | 0.00 | 98 | 1016.1 |
| 20260506073528 | 9 | 196 | 0.0 | 1.6 | 0.00 | 0.00 | 0.00 | 96 | 1016.0 |
| 20260506073028 | 9 | 196 | 0.0 | 0.0 | 0.00 | 0.00 | 0.00 | 95 | 1016.0 |
| 20260506072829 | 9 | 196 | 0.0 | 0.0 | 0.00 | 0.00 | 0.00 | 95 | 1016.1 |
| 20260506072528 | 9 | 196 | 1.6 | 0.0 | 0.00 | 0.00 | 0.00 | 95 | 1016.1 |
| 20260506072028 | 9 | 196 | 3.2 | 3.2 | 0.00 | 0.00 | 0.00 | 96 | 1016.0 |
| 20260506071929 | 9 | 196 | 3.2 | 4.8 | 0.00 | 0.00 | 0.00 | 96 | 1016.1 |
| 20260506071528 | 9 | 196 | 3.2 | 4.8 | 0.00 | 0.00 | 0.00 | 96 | 1016.0 |
| 20260506071028 | 9 | 196 | 3.2 | 6.4 | 0.00 | 0.00 | 0.00 | 96 | 1016.1 |
| 20260506070528 | 9 | 196 | 3.2 | 4.8 | 0.00 | 0.00 | 0.00 | 96 | 1015.9 |
| 20260506070129 | 9 | 196 | 1.6 | 4.8 | 0.00 | 0.00 | 0.00 | 96 | 1015.8 |
| 20260506062028 | 10 | 192 | 0.0 | 1.6 | 0.00 | 0.00 | 0.00 | 94 | 1015.6 |
| 20260506061629 | 10 | 192 | 0.0 | 1.6 | 0.00 | 0.00 | 0.00 | 94 | 1015.6 |
| 20260506061528 | 10 | 192 | 1.6 | 1.6 | 0.00 | 0.00 | 0.00 | 95 | 1015.6 |
| 20260506061028 | 10 | 192 | 1.6 | 6.4 | 0.00 | 0.00 | 0.00 | 94 | 1015.6 |
| 20260506060729 | 10 | 192 | 3.2 | 4.8 | 0.00 | 0.00 | 0.00 | 94 | 1015.5 |
| 20260506060528 | 10 | 192 | 4.8 | 6.4 | 0.00 | 0.00 | 0.00 | 94 | 1015.5 |
| 20260506051330 | 10 | 245 | 6.4 | 12.9 | 0.00 | 0.00 | 0.00 | 93 | 1015.2 |
| 20260506051028 | 10 | 262 | 4.8 | 11.3 | 0.00 | 0.00 | 0.00 | 92 | 1015.2 |
| 20260506050528 | 10 | 161 | 1.6 | 8.0 | 0.00 | 0.00 | 0.00 | 93 | 1015.2 |
| 20260506050430 | 10 | 161 | 1.6 | 6.4 | 0.00 | 0.00 | 0.00 | 92 | 1015.2 |
| 20260506045028 | 10 | 161 | 0.0 | 3.2 | 0.00 | 0.00 | 0.00 | 92 | 1015.0 |
| 20260506044630 | 10 | 159 | 0.0 | 1.6 | 0.00 | 0.00 | 0.00 | 92 | 1014.9 |
| 20260506044529 | 10 | 159 | 0.0 | 0.0 | 0.00 | 0.00 | 0.00 | 92 | 1014.9 |
| 20260506044029 | 11 | 159 | 0.0 | 0.0 | 0.00 | 0.00 | 0.00 | 92 | 1014.8 |
| 20260506043730 | 11 | 159 | 1.6 | 1.6 | 0.00 | 0.00 | 0.00 | 92 | 1014.7 |
| 20260506043529 | 11 | 159 | 1.6 | 3.2 | 0.00 | 0.00 | 0.00 | 92 | 1014.7 |
| 20260506043029 | 11 | 159 | 1.6 | 3.2 | 0.00 | 0.00 | 0.00 | 92 | 1014.6 |
| 20260506042830 | 11 | 159 | 3.2 | 3.2 | 0.00 | 0.00 | 0.00 | 92 | 1014.6 |
| 20260506042529 | 11 | 159 | 3.2 | 3.2 | 0.00 | 0.00 | 0.00 | 92 | 1014.6 |
| 20260506042029 | 11 | 159 | 4.8 | 6.4 | 0.00 | 0.00 | 0.00 | 92 | 1014.7 |
| 20260506041930 | 11 | 159 | 4.8 | 6.4 | 0.00 | 0.00 | 0.00 | 91 | 1014.6 |
| 20260506041529 | 11 | 159 | 3.2 | 6.4 | 0.00 | 0.00 | 0.00 | 92 | 1014.6 |
| 20260506041029 | 11 | 159 | 3.2 | 6.4 | 0.00 | 0.00 | 0.00 | 92 | 1014.7 |
| 20260506040529 | 11 | 159 | 3.2 | 6.4 | 0.00 | 0.00 | 0.00 | 91 | 1014.6 |
| 20260506040130 | 11 | 159 | 3.2 | 6.4 | 0.00 | 0.00 | 0.00 | 91 | 1014.6 |
| 20260506040029 | 11 | 159 | 3.2 | 6.4 | 0.00 | 0.00 | 0.00 | 91 | 1014.5 |
| 20260506035529 | 11 | 159 | 6.4 | 9.7 | 0.00 | 0.00 | 0.00 | 91 | 1014.6 |
| 20260506035029 | 11 | 152 | 11.3 | 14.5 | 0.00 | 0.00 | 0.00 | 90 | 1014.5 |
| 20260506034529 | 10 | 191 | 12.9 | 16.1 | 0.00 | 0.00 | 0.00 | 91 | 1014.3 |
| 20260506034330 | 10 | 198 | 12.9 | 16.1 | 0.00 | 0.00 | 0.00 | 91 | 1014.3 |
| 20260506034029 | 10 | 196 | 14.5 | 16.1 | 0.00 | 0.00 | 0.00 | 91 | 1014.3 |
| 20260506033529 | 11 | 194 | 16.1 | 19.3 | 0.00 | 0.00 | 0.00 | 90 | 1014.2 |
| 20260506033430 | 11 | 198 | 16.1 | 19.3 | 0.00 | 0.00 | 0.00 | 91 | 1014.2 |
| 20260506033029 | 10 | 188 | 17.7 | 20.9 | 0.00 | 0.00 | 0.00 | 91 | 1014.2 |
| 20260506032529 | 10 | 195 | 17.7 | 20.9 | 0.00 | 0.00 | 0.00 | 91 | 1014.0 |
| 20260506032029 | 10 | 204 | 17.7 | 20.9 | 0.00 | 0.00 | 0.00 | 91 | 1014.0 |
| 20260506031630 | 10 | 200 | 17.7 | 20.9 | 0.00 | 0.00 | 0.00 | 91 | 1014.0 |
| 20260506031529 | 10 | 197 | 17.7 | 20.9 | 0.00 | 0.00 | 0.00 | 91 | 1014.0 |
| 20260506031029 | 11 | 198 | 17.7 | 20.9 | 0.00 | 0.00 | 0.00 | 90 | 1013.9 |
| 20260506030730 | 11 | 204 | 16.1 | 20.9 | 0.00 | 0.00 | 0.00 | 90 | 1013.9 |
| 20260506030529 | 11 | 190 | 16.1 | 19.3 | 0.00 | 0.00 | 0.00 | 90 | 1013.9 |
| 20260506030029 | 11 | 199 | 17.7 | 20.9 | 0.00 | 0.00 | 0.00 | 89 | 1013.8 |
| 20260506025830 | 11 | 200 | 17.7 | 22.5 | 0.00 | 0.00 | 0.00 | 89 | 1013.9 |
| 20260506025529 | 11 | 198 | 19.3 | 22.5 | 0.00 | 0.00 | 0.00 | 89 | 1013.9 |
| 20260506025029 | 11 | 200 | 19.3 | 24.1 | 0.00 | 0.00 | 0.00 | 89 | 1013.9 |
| 20260506024930 | 11 | 206 | 19.3 | 24.1 | 0.00 | 0.00 | 0.00 | 89 | 1013.9 |
| 20260506024529 | 11 | 207 | 19.3 | 22.5 | 0.00 | 0.00 | 0.00 | 88 | 1013.8 |
| 20260506024029 | 11 | 204 | 19.3 | 24.1 | 0.00 | 0.00 | 0.00 | 89 | 1013.8 |
| 20260506023529 | 11 | 208 | 19.3 | 24.1 | 0.00 | 0.00 | 0.00 | 88 | 1013.7 |
| 20260506023130 | 11 | 206 | 19.3 | 24.1 | 0.00 | 0.00 | 0.00 | 88 | 1013.7 |
| 20260506023029 | 11 | 195 | 19.3 | 24.1 | 0.00 | 0.00 | 0.00 | 88 | 1013.7 |
| 20260506022529 | 11 | 200 | 19.3 | 25.7 | 0.00 | 0.00 | 0.00 | 87 | 1013.6 |
| 20260506022231 | 12 | 202 | 19.3 | 27.4 | 0.00 | 0.00 | 0.00 | 87 | 1013.6 |
| 20260506022029 | 11 | 217 | 20.9 | 27.4 | 0.00 | 0.00 | 0.00 | 87 | 1013.6 |
| 20260506021529 | 12 | 194 | 19.3 | 25.7 | 0.00 | 0.00 | 0.00 | 87 | 1013.7 |
| 20260506021331 | 12 | 207 | 19.3 | 25.7 | 0.00 | 0.00 | 0.00 | 87 | 1013.6 |
| 20260506021029 | 12 | 207 | 19.3 | 25.7 | 0.00 | 0.00 | 0.00 | 87 | 1013.7 |
| 20260506020529 | 12 | 219 | 19.3 | 22.5 | 0.00 | 0.00 | 0.00 | 86 | 1013.7 |
| 20260506020430 | 12 | 205 | 19.3 | 24.1 | 0.00 | 0.00 | 0.00 | 86 | 1013.6 |
| 20260506020029 | 12 | 204 | 19.3 | 25.7 | 0.00 | 0.00 | 0.00 | 86 | 1013.6 |
| 20260506015529 | 12 | 211 | 20.9 | 27.4 | 0.00 | 0.00 | 0.00 | 86 | 1013.5 |
| 20260506015029 | 12 | 207 | 22.5 | 27.4 | 0.00 | 0.00 | 0.00 | 86 | 1013.6 |
| 20260506014630 | 12 | 200 | 22.5 | 29.0 | 0.00 | 0.00 | 0.00 | 86 | 1013.5 |
| 20260506014529 | 12 | 205 | 22.5 | 29.0 | 0.00 | 0.00 | 0.00 | 86 | 1013.4 |
| 20260506014029 | 12 | 196 | 22.5 | 30.6 | 0.00 | 0.00 | 0.00 | 86 | 1013.4 |
| 20260506013730 | 12 | 211 | 22.5 | 29.0 | 0.00 | 0.00 | 0.00 | 86 | 1013.4 |
| 20260506013529 | 12 | 213 | 22.5 | 29.0 | 0.00 | 0.00 | 0.00 | 87 | 1013.4 |
| 20260506013029 | 12 | 203 | 24.1 | 29.0 | 0.00 | 0.00 | 0.00 | 86 | 1013.4 |
| 20260506012830 | 12 | 229 | 24.1 | 30.6 | 0.00 | 0.00 | 0.00 | 86 | 1013.4 |
| 20260506012529 | 12 | 209 | 24.1 | 30.6 | 0.00 | 0.00 | 0.00 | 86 | 1013.3 |
| 20260506012029 | 12 | 207 | 22.5 | 33.8 | 0.00 | 0.00 | 0.00 | 86 | 1013.3 |
| 20260506011930 | 12 | 213 | 22.5 | 29.0 | 0.00 | 0.00 | 0.00 | 86 | 1013.4 |
| 20260506011529 | 12 | 214 | 20.9 | 27.4 | 0.00 | 0.00 | 0.00 | 86 | 1013.5 |
| 20260506011029 | 12 | 207 | 20.9 | 30.6 | 0.00 | 0.00 | 0.00 | 86 | 1013.4 |
| 20260506010529 | 12 | 203 | 20.9 | 29.0 | 0.00 | 0.00 | 0.00 | 86 | 1013.4 |
| 20260506010130 | 12 | 213 | 19.3 | 29.0 | 0.00 | 0.00 | 0.00 | 85 | 1013.4 |
| 20260506010029 | 12 | 223 | 19.3 | 29.0 | 0.00 | 0.00 | 0.00 | 85 | 1013.3 |
| 20260506005529 | 12 | 216 | 20.9 | 29.0 | 0.00 | 0.00 | 0.00 | 86 | 1013.4 |
| 20260506005029 | 12 | 222 | 20.9 | 27.4 | 0.00 | 0.00 | 0.00 | 86 | 1013.3 |
| 20260506004529 | 12 | 231 | 20.9 | 32.2 | 0.00 | 0.00 | 0.00 | 86 | 1013.2 |
| 20260506004330 | 12 | 225 | 20.9 | 32.2 | 0.00 | 0.00 | 0.00 | 86 | 1013.2 |
| 20260506004029 | 12 | 239 | 22.5 | 29.0 | 0.00 | 0.00 | 0.00 | 85 | 1013.2 |
| 20260506003529 | 12 | 209 | 20.9 | 27.4 | 0.00 | 0.00 | 0.00 | 85 | 1013.2 |
| 20260506003430 | 12 | 213 | 20.9 | 27.4 | 0.00 | 0.00 | 0.00 | 85 | 1013.2 |
| 20260506003029 | 12 | 205 | 20.9 | 29.0 | 0.00 | 0.00 | 0.00 | 86 | 1013.0 |
| 20260506002529 | 12 | 208 | 20.9 | 29.0 | 0.00 | 0.00 | 0.00 | 85 | 1013.2 |
| 20260506002029 | 12 | 223 | 20.9 | 29.0 | 0.00 | 0.00 | 0.00 | 85 | 1013.1 |
| 20260506001630 | 13 | 218 | 20.9 | 29.0 | 0.00 | 0.00 | 0.00 | 84 | 1013.1 |
| 20260506001533 | 13 | 211 | 20.9 | 29.0 | 0.00 | 0.00 | 0.00 | 85 | 1013.2 |
| 20260506001029 | 13 | 207 | 24.1 | 30.6 | 0.00 | 0.00 | 0.00 | 84 | 1013.1 |
| 20260506000730 | 12 | 228 | 24.1 | 32.2 | 0.00 | 0.00 | 0.00 | 85 | 1013.1 |
| 20260506000529 | 12 | 194 | 24.1 | 32.2 | 0.00 | 0.00 | 0.00 | 85 | 1013.0 |
| 20260506000029 | 12 | 202 | 24.1 | 32.2 | 0.00 | 0.00 | 0.00 | 84 | 1013.0 |
| 20260505235830 | 13 | 203 | 24.1 | 32.2 | 0.00 | 0.00 | 0.00 | 84 | 1012.9 |
| 20260505235529 | 13 | 217 | 22.5 | 30.6 | 0.00 | 0.00 | 0.00 | 85 | 1012.8 |
| 20260505235029 | 13 | 218 | 22.5 | 33.8 | 0.00 | 0.00 | 0.00 | 84 | 1013.0 |
| 20260505234931 | 13 | 209 | 20.9 | 33.8 | 0.00 | 0.00 | 0.00 | 84 | 1013.0 |
| 20260505234529 | 13 | 200 | 20.9 | 30.6 | 0.00 | 0.00 | 0.00 | 84 | 1013.0 |
| 20260505234029 | 13 | 199 | 20.9 | 29.0 | 0.00 | 0.00 | 0.00 | 83 | 1013.1 |
| 20260505233529 | 13 | 211 | 22.5 | 29.0 | 0.00 | 0.00 | 0.00 | 84 | 1013.1 |
| 20260505233130 | 13 | 213 | 22.5 | 32.2 | 0.00 | 0.00 | 0.00 | 83 | 1013.1 |
| 20260505233029 | 13 | 207 | 22.5 | 32.2 | 0.00 | 0.00 | 0.00 | 84 | 1013.1 |
| 20260505232529 | 13 | 224 | 20.9 | 29.0 | 0.00 | 0.00 | 0.00 | 83 | 1013.1 |
| 20260505232230 | 13 | 204 | 20.9 | 29.0 | 0.00 | 0.00 | 0.00 | 83 | 1013.1 |
| 20260505232029 | 13 | 209 | 20.9 | 29.0 | 0.00 | 0.00 | 0.00 | 84 | 1013.1 |
| 20260505231529 | 13 | 213 | 20.9 | 30.6 | 0.00 | 0.00 | 0.00 | 83 | 1013.3 |
| 20260505231330 | 13 | 207 | 20.9 | 32.2 | 0.00 | 0.00 | 0.00 | 84 | 1013.2 |
| 20260505231029 | 13 | 212 | 19.3 | 32.2 | 0.00 | 0.00 | 0.00 | 84 | 1013.2 |
| 20260505230529 | 13 | 209 | 20.9 | 29.0 | 0.00 | 0.00 | 0.00 | 85 | 1013.2 |
| 20260505230430 | 13 | 215 | 20.9 | 32.2 | 0.00 | 0.00 | 0.00 | 84 | 1013.2 |
| 20260505230029 | 13 | 203 | 20.9 | 32.2 | 0.00 | 0.00 | 0.00 | 84 | 1013.2 |
| 20260505225529 | 13 | 228 | 20.9 | 29.0 | 0.00 | 0.00 | 0.00 | 85 | 1013.2 |
| 20260505225029 | 13 | 214 | 22.5 | 30.6 | 0.00 | 0.00 | 0.00 | 85 | 1013.2 |
| 20260505224630 | 13 | 214 | 22.5 | 29.0 | 0.00 | 0.00 | 0.00 | 84 | 1013.2 |
| 20260505224529 | 13 | 208 | 24.1 | 29.0 | 0.00 | 0.00 | 0.00 | 83 | 1013.2 |
| 20260505224029 | 13 | 238 | 24.1 | 32.2 | 0.00 | 0.00 | 0.00 | 80 | 1013.2 |
| 20260505223730 | 13 | 211 | 24.1 | 32.2 | 0.00 | 0.00 | 0.00 | 84 | 1013.1 |
| 20260505223529 | 12 | 213 | 24.1 | 32.2 | 0.00 | 0.00 | 0.00 | 84 | 1013.1 |
| 20260505223029 | 13 | 216 | 24.1 | 33.8 | 0.00 | 0.00 | 0.00 | 84 | 1013.1 |
| 20260505222830 | 13 | 207 | 24.1 | 33.8 | 0.00 | 0.00 | 0.00 | 83 | 1013.1 |
| 20260505222529 | 13 | 213 | 22.5 | 29.0 | 0.00 | 0.00 | 0.00 | 83 | 1013.2 |
| 20260505222029 | 13 | 204 | 22.5 | 38.6 | 0.00 | 0.00 | 0.00 | 81 | 1013.2 |
| 20260505221930 | 13 | 208 | 22.5 | 38.6 | 0.00 | 0.00 | 0.00 | 80 | 1013.1 |
| 20260505221529 | 13 | 219 | 22.5 | 30.6 | 0.00 | 0.00 | 0.00 | 82 | 1013.2 |
| 20260505221029 | 13 | 220 | 22.5 | 32.2 | 0.00 | 0.00 | 0.00 | 81 | 1013.1 |
| 20260505220529 | 13 | 207 | 19.3 | 27.4 | 0.00 | 0.00 | 0.00 | 81 | 1013.2 |
| 20260505220130 | 13 | 204 | 17.7 | 25.7 | 0.00 | 0.00 | 0.00 | 82 | 1013.2 |
| 20260505220029 | 13 | 214 | 19.3 | 25.7 | 0.00 | 0.00 | 0.00 | 81 | 1013.2 |
| 20260505215529 | 13 | 209 | 19.3 | 25.7 | 0.00 | 0.00 | 0.00 | 82 | 1013.3 |
| 20260505215231 | 13 | 225 | 19.3 | 29.0 | 0.00 | 0.00 | 0.00 | 80 | 1013.4 |
| 20260505215029 | 13 | 202 | 17.7 | 29.0 | 0.00 | 0.00 | 0.00 | 82 | 1013.2 |
| 20260505214529 | 13 | 209 | 17.7 | 25.7 | 0.00 | 0.00 | 0.00 | 82 | 1013.2 |
| 20260505214330 | 13 | 215 | 17.7 | 22.5 | 0.00 | 0.00 | 0.00 | 83 | 1013.2 |
| 20260505214029 | 13 | 219 | 19.3 | 25.7 | 0.00 | 0.00 | 0.00 | 83 | 1013.1 |
| 20260505213529 | 12 | 209 | 17.7 | 25.7 | 0.00 | 0.00 | 0.00 | 84 | 1013.3 |
| 20260505213430 | 12 | 209 | 17.7 | 25.7 | 0.00 | 0.00 | 0.00 | 84 | 1013.2 |
| 20260505213029 | 12 | 215 | 16.1 | 24.1 | 0.00 | 0.00 | 0.00 | 84 | 1013.3 |
| 20260505212529 | 13 | 215 | 16.1 | 22.5 | 0.00 | 0.00 | 0.00 | 83 | 1013.3 |
| 20260505212029 | 12 | 195 | 16.1 | 22.5 | 0.00 | 0.00 | 0.00 | 84 | 1013.3 |
| 20260505211630 | 12 | 218 | 17.7 | 22.5 | 0.00 | 0.00 | 0.00 | 85 | 1013.3 |
| 20260505211529 | 12 | 228 | 17.7 | 22.5 | 0.00 | 0.00 | 0.00 | 84 | 1013.3 |
| 20260505211029 | 12 | 188 | 17.7 | 24.1 | 0.00 | 0.00 | 0.00 | 84 | 1013.3 |
| 20260505210730 | 12 | 209 | 17.7 | 22.5 | 0.00 | 0.00 | 0.00 | 87 | 1013.4 |
| 20260505210529 | 12 | 210 | 17.7 | 25.7 | 0.00 | 0.00 | 0.00 | 86 | 1013.3 |
| 20260505210029 | 12 | 215 | 17.7 | 25.7 | 0.00 | 0.00 | 0.00 | 86 | 1013.3 |
| 20260505205830 | 12 | 209 | 19.3 | 27.4 | 0.00 | 0.00 | 0.00 | 85 | 1013.3 |
| 20260505205529 | 12 | 203 | 19.3 | 27.4 | 0.00 | 0.00 | 0.00 | 87 | 1013.3 |
| 20260505205029 | 12 | 207 | 19.3 | 25.7 | 0.00 | 0.00 | 0.00 | 86 | 1013.2 |
| 20260505204930 | 12 | 211 | 17.7 | 25.7 | 0.00 | 0.00 | 0.00 | 86 | 1013.3 |
| 20260505204529 | 12 | 198 | 16.1 | 24.1 | 0.00 | 0.00 | 0.00 | 88 | 1013.3 |
| 20260505204029 | 12 | 204 | 16.1 | 20.9 | 0.00 | 0.00 | 0.00 | 88 | 1013.3 |
| 20260505203529 | 12 | 209 | 14.5 | 22.5 | 0.00 | 0.00 | 0.00 | 88 | 1013.3 |
| 20260505203130 | 11 | 204 | 16.1 | 22.5 | 0.00 | 0.00 | 0.00 | 88 | 1013.2 |
| 20260505203029 | 11 | 207 | 16.1 | 22.5 | 0.00 | 0.00 | 0.00 | 88 | 1013.3 |
| 20260505202529 | 11 | 192 | 17.7 | 24.1 | 0.00 | 0.00 | 0.00 | 89 | 1013.2 |
| 20260505202230 | 11 | 198 | 17.7 | 24.1 | 0.00 | 0.00 | 0.00 | 88 | 1013.1 |
| 20260505202029 | 11 | 212 | 16.1 | 22.5 | 0.00 | 0.00 | 0.00 | 88 | 1013.2 |
| 20260505201529 | 11 | 200 | 16.1 | 20.9 | 0.00 | 0.00 | 0.00 | 87 | 1013.3 |
| 20260505201331 | 11 | 225 | 16.1 | 25.7 | 0.00 | 0.00 | 0.00 | 89 | 1013.2 |
| 20260505201029 | 11 | 219 | 14.5 | 25.7 | 0.00 | 0.00 | 0.00 | 88 | 1013.2 |
| 20260505200529 | 11 | 205 | 12.9 | 20.9 | 0.00 | 0.00 | 0.00 | 88 | 1013.2 |
| 20260505200430 | 11 | 216 | 11.3 | 20.9 | 0.00 | 0.00 | 0.00 | 90 | 1013.2 |
| 20260505200029 | 11 | 229 | 12.9 | 16.1 | 0.00 | 0.00 | 0.00 | 88 | 1013.2 |
| 20260505195529 | 11 | 207 | 9.7 | 22.5 | 0.00 | 0.00 | 0.00 | 89 | 1013.2 |
| 20260505195029 | 11 | 239 | 9.7 | 14.5 | 0.00 | 0.00 | 0.00 | 90 | 1013.2 |
| 20260505194630 | 11 | 232 | 11.3 | 16.1 | 0.00 | 0.00 | 0.00 | 90 | 1013.2 |
| 20260505194529 | 11 | 229 | 12.9 | 17.7 | 0.00 | 0.00 | 0.00 | 90 | 1013.2 |
| 20260505194029 | 11 | 232 | 11.3 | 16.1 | 0.00 | 0.00 | 0.00 | 88 | 1013.2 |
| 20260505193730 | 11 | 233 | 9.7 | 16.1 | 0.00 | 0.00 | 0.00 | 88 | 1013.2 |
| 20260505193529 | 11 | 221 | 9.7 | 16.1 | 0.00 | 0.00 | 0.00 | 88 | 1013.1 |
| 20260505193029 | 11 | 259 | 11.3 | 14.5 | 0.00 | 0.00 | 0.00 | 89 | 1013.2 |
| 20260505192830 | 11 | 228 | 11.3 | 14.5 | 0.00 | 0.00 | 0.00 | 90 | 1013.2 |
| 20260505192529 | 11 | 260 | 11.3 | 17.7 | 0.00 | 0.00 | 0.00 | 90 | 1013.2 |
| 20260505192029 | 10 | 229 | 11.3 | 19.3 | 0.00 | 0.00 | 0.00 | 91 | 1013.1 |
| 20260505191930 | 10 | 246 | 11.3 | 19.3 | 0.00 | 0.00 | 0.00 | 91 | 1013.1 |
| 20260505191529 | 10 | 213 | 9.7 | 16.1 | 0.00 | 0.00 | 0.00 | 92 | 1013.0 |
| 20260505191029 | 10 | 238 | 11.3 | 16.1 | 0.00 | 0.00 | 0.00 | 91 | 1013.0 |
| 20260505190529 | 10 | 262 | 9.7 | 16.1 | 0.00 | 0.00 | 0.00 | 91 | 1013.0 |
| 20260505190130 | 11 | 240 | 9.7 | 16.1 | 0.00 | 0.00 | 0.00 | 89 | 1013.1 |
| 20260505190029 | 11 | 250 | 8.0 | 14.5 | 0.00 | 0.00 | 0.00 | 88 | 1013.0 |
| 20260505185529 | 11 | 265 | 8.0 | 12.9 | 0.00 | 0.00 | 0.00 | 87 | 1013.0 |
| 20260505185231 | 11 | 263 | 8.0 | 12.9 | 0.00 | 0.00 | 0.00 | 88 | 1013.0 |
| 20260505185029 | 11 | 299 | 8.0 | 14.5 | 0.00 | 0.00 | 0.00 | 88 | 1013.0 |
| 20260505184529 | 11 | 283 | 6.4 | 14.5 | 0.00 | 0.00 | 0.00 | 88 | 1013.0 |
| 20260505184330 | 11 | 276 | 6.4 | 11.3 | 0.00 | 0.00 | 0.00 | 87 | 1012.9 |
| 20260505184029 | 11 | 289 | 4.8 | 11.3 | 0.00 | 0.00 | 0.00 | 87 | 1013.1 |
| 20260505183529 | 11 | 311 | 4.8 | 8.0 | 0.00 | 0.00 | 0.00 | 85 | 1013.0 |
| 20260505183430 | 11 | 310 | 4.8 | 8.0 | 0.00 | 0.00 | 0.00 | 86 | 1013.0 |
| 20260505183029 | 11 | 305 | 3.2 | 8.0 | 0.00 | 0.00 | 0.00 | 85 | 1013.1 |
| 20260505182529 | 11 | 312 | 3.2 | 6.4 | 0.00 | 0.00 | 0.00 | 85 | 1013.0 |
| 20260505182029 | 12 | 319 | 3.2 | 6.4 | 0.00 | 0.00 | 0.00 | 85 | 1013.0 |
| 20260505181630 | 12 | 321 | 3.2 | 6.4 | 0.00 | 0.00 | 0.00 | 86 | 1013.0 |
| 20260505181529 | 12 | 5 | 3.2 | 6.4 | 0.00 | 0.00 | 0.00 | 86 | 1012.9 |
| 20260505181029 | 12 | 46 | 3.2 | 9.7 | 0.00 | 0.00 | 0.00 | 89 | 1012.8 |
| 20260505180730 | 12 | 144 | 3.2 | 9.7 | 0.00 | 0.00 | 0.00 | 89 | 1012.7 |
| 20260505180529 | 12 | 163 | 3.2 | 6.4 | 0.00 | 0.00 | 0.00 | 90 | 1012.7 |
| 20260505180029 | 12 | 311 | 3.2 | 8.0 | 0.00 | 0.00 | 0.00 | 92 | 1012.7 |
| 20260505175830 | 11 | 17 | 3.2 | 8.0 | 0.00 | 0.00 | 0.00 | 93 | 1012.8 |
| 20260505175529 | 11 | 130 | 3.2 | 6.4 | 0.00 | 0.00 | 0.00 | 90 | 1012.8 |
| 20260505175029 | 11 | 74 | 4.8 | 8.0 | 0.00 | 0.00 | 0.00 | 91 | 1012.8 |
| 20260505174930 | 11 | 48 | 4.8 | 8.0 | 0.00 | 0.00 | 0.00 | 92 | 1012.7 |
| 20260505174529 | 11 | 135 | 4.8 | 8.0 | 0.00 | 0.00 | 0.00 | 93 | 1012.7 |
| 20260505174029 | 11 | 73 | 4.8 | 9.7 | 0.00 | 0.00 | 0.00 | 91 | 1012.7 |
| 20260505173529 | 11 | 65 | 3.2 | 8.0 | 0.00 | 0.00 | 0.00 | 97 | 1012.7 |
| 20260505173131 | 10 | 71 | 3.2 | 6.4 | 0.00 | 0.00 | 0.00 | 98 | 1012.7 |
| 20260505173029 | 10 | 43 | 3.2 | 6.4 | 0.00 | 0.00 | 0.00 | 98 | 1012.7 |
| 20260505172529 | 10 | 25 | 3.2 | 6.4 | 0.00 | 0.00 | 0.00 | 97 | 1012.6 |
| 20260505172231 | 10 | 297 | 3.2 | 8.0 | 0.00 | 0.00 | 0.00 | 98 | 1012.7 |
| 20260505172029 | 10 | 223 | 3.2 | 8.0 | 0.00 | 0.00 | 0.00 | 99 | 1012.7 |
| 20260505171529 | 10 | 0 | 1.6 | 6.4 | 0.00 | 0.00 | 0.00 | 99 | 1012.7 |
| 20260505171331 | 10 | 315 | 3.2 | 6.4 | 0.00 | 0.00 | 0.00 | 99 | 1012.7 |
| 20260505171029 | 10 | 321 | 1.6 | 4.8 | 0.00 | 0.00 | 0.00 | 99 | 1012.7 |
| 20260505170530 | 10 | 42 | 3.2 | 4.8 | 0.00 | 0.00 | 0.00 | 100 | 1012.7 |
| 20260505170431 | 9 | 39 | 3.2 | 4.8 | 0.00 | 0.00 | 0.00 | 100 | 1012.7 |
| 20260505170029 | 9 | 39 | 3.2 | 8.0 | 0.00 | 0.00 | 0.00 | 100 | 1012.6 |
| 20260505165530 | 9 | 55 | 3.2 | 8.0 | 0.00 | 0.00 | 0.00 | 100 | 1012.6 |
| 20260505165029 | 9 | 5 | 1.6 | 6.4 | 0.00 | 0.00 | 0.00 | 100 | 1012.6 |
| 20260505164630 | 8 | 11 | 1.6 | 6.4 | 0.00 | 0.00 | 0.00 | 100 | 1012.6 |
| 20260505164530 | 8 | 11 | 1.6 | 6.4 | 0.00 | 0.00 | 0.00 | 100 | 1012.6 |
| 20260505164030 | 8 | 345 | 1.6 | 3.2 | 0.00 | 0.00 | 0.00 | 100 | 1012.6 |
| 20260505163731 | 8 | 345 | 1.6 | 3.2 | 0.00 | 0.00 | 0.00 | 100 | 1012.5 |
| 20260505163529 | 8 | 345 | 1.6 | 4.8 | 0.00 | 0.00 | 0.00 | 100 | 1012.5 |
| 20260505163030 | 8 | 202 | 1.6 | 4.8 | 0.00 | 0.00 | 0.00 | 100 | 1012.6 |
| 20260505162831 | 8 | 197 | 1.6 | 4.8 | 0.00 | 0.00 | 0.00 | 100 | 1012.4 |
| 20260505162530 | 8 | 199 | 3.2 | 4.8 | 0.00 | 0.00 | 0.00 | 100 | 1012.5 |
| 20260505162030 | 7 | 317 | 4.8 | 6.4 | 0.00 | 0.00 | 0.00 | 100 | 1012.5 |
| 20260505161931 | 7 | 355 | 4.8 | 6.4 | 0.00 | 0.00 | 0.00 | 100 | 1012.5 |
| 20260505161530 | 7 | 276 | 3.2 | 11.3 | 0.00 | 0.00 | 0.00 | 100 | 1012.4 |
| 20260505161030 | 7 | 284 | 3.2 | 6.4 | 0.00 | 0.00 | 0.00 | 100 | 1012.4 |
| 20260505160530 | 8 | 336 | 1.6 | 4.8 | 0.00 | 0.00 | 0.00 | 100 | 1012.4 |
| 20260505160131 | 8 | 306 | 1.6 | 3.2 | 0.00 | 0.00 | 0.00 | 100 | 1012.4 |
| 20260505153030 | 7 | 322 | 1.6 | 3.2 | 0.00 | 0.00 | 0.00 | 100 | 1012.5 |
| 20260505152530 | 7 | 322 | 1.6 | 3.2 | 0.00 | 0.00 | 0.00 | 100 | 1012.4 |
| 20260505152030 | 8 | 322 | 1.6 | 4.8 | 0.00 | 0.00 | 0.00 | 100 | 1012.4 |
| 20260505151631 | 8 | 63 | 0.0 | 3.2 | 0.00 | 0.00 | 0.00 | 100 | 1012.4 |
| 20260505151530 | 8 | 63 | 0.0 | 3.2 | 0.00 | 0.00 | 0.00 | 100 | 1012.3 |
| 20260505151030 | 8 | 63 | 0.0 | 1.6 | 0.00 | 0.00 | 0.00 | 100 | 1012.3 |
| 20260505150731 | 8 | 63 | 0.0 | 1.6 | 0.00 | 0.00 | 0.00 | 100 | 1012.3 |
| 20260505150530 | 8 | 63 | 0.0 | 1.6 | 0.00 | 0.00 | 0.00 | 100 | 1012.3 |
| 20260505140530 | 7 | 63 | 3.2 | 4.8 | 0.00 | 0.00 | 0.00 | 100 | 1011.8 |
| 20260505140431 | 7 | 63 | 3.2 | 4.8 | 0.00 | 0.00 | 0.00 | 100 | 1011.8 |
| 20260505130131 | 7 | 63 | 3.2 | 4.8 | 0.00 | 0.00 | 0.00 | 100 | 1011.3 |
| 20260505125030 | 7 | 26 | 3.2 | 4.8 | 0.00 | 0.00 | 0.00 | 100 | 1011.2 |
| 20260505124530 | 7 | 26 | 1.6 | 6.4 | 0.00 | 0.00 | 0.00 | 100 | 1011.2 |
| 20260505124331 | 7 | 26 | 1.6 | 6.4 | 0.00 | 0.00 | 0.00 | 100 | 1011.2 |
| 20260505124030 | 7 | 26 | 0.0 | 3.2 | 0.00 | 0.00 | 0.00 | 100 | 1011.1 |
| 20260505123530 | 7 | 26 | 1.6 | 3.2 | 0.00 | 0.00 | 0.00 | 100 | 1011.2 |
| 20260505123431 | 7 | 26 | 1.6 | 3.2 | 0.00 | 0.00 | 0.00 | 100 | 1011.1 |
| 20260505123030 | 7 | 26 | 1.6 | 3.2 | 0.00 | 0.00 | 0.00 | 100 | 1011.1 |
| 20260505122530 | 7 | 26 | 0.0 | 1.6 | 0.00 | 0.00 | 0.00 | 100 | 1011.1 |
| 20260505122030 | 7 | 26 | 1.6 | 3.2 | 0.00 | 0.00 | 0.00 | 100 | 1011.1 |
| 20260505121631 | 7 | 26 | 0.0 | 3.2 | 0.00 | 0.00 | 0.00 | 100 | 1011.1 |
| 20260505121530 | 7 | 26 | 0.0 | 3.2 | 0.00 | 0.00 | 0.00 | 100 | 1011.1 |
| 20260505121030 | 7 | 26 | 0.0 | 3.2 | 0.00 | 0.00 | 0.00 | 100 | 1011.0 |
| 20260505120731 | 7 | 26 | 0.0 | 1.6 | 0.00 | 0.00 | 0.00 | 100 | 1011.0 |
| 20260505120530 | 7 | 26 | 0.0 | 1.6 | 0.00 | 0.00 | 0.00 | 100 | 1011.1 |
| 20260505120030 | 7 | 26 | 1.6 | 3.2 | 0.00 | 0.00 | 0.00 | 100 | 1011.0 |
| 20260505115831 | 7 | 26 | 1.6 | 3.2 | 0.00 | 0.00 | 0.00 | 100 | 1011.0 |
| 20260505115530 | 7 | 26 | 1.6 | 4.8 | 0.00 | 0.00 | 0.00 | 100 | 1011.0 |
| 20260505115030 | 8 | 26 | 3.2 | 4.8 | 0.00 | 0.00 | 0.00 | 100 | 1011.0 |
| 20260505114931 | 8 | 26 | 3.2 | 3.2 | 0.00 | 0.00 | 0.00 | 100 | 1011.1 |
| 20260505114530 | 8 | 26 | 4.8 | 8.0 | 0.00 | 0.00 | 0.00 | 100 | 1010.9 |